STARLINK-1792 (46693 NORAD) Tracking and Keplerian Element Data

This shows tracking and keplerian element data for the satellite.

Feedback or suggestion? Click here.




ElementValue
Catalog46693
NameSTARLINK-1792
Epoch Orbit181
Epoch Day336.91667824
Epoch Year2020
RAAN251.0092
Inclination53.0561
Eccentricity0.0001295
Argument of Perigee71.6088
Mean Anonmoly3.4363
Mean Motion15.62787281
Decay Rate-0.00068093
L11 46693U 20073Z 20336.91667824 -.00068093 00000-0 -74308-3 0 9990
L22 46693 53.0561 251.0092 0001295 71.6088 3.4363 15.62787281 1812

Live tracking and technical data element details for STARLINK-1792 (NORAD 46693). STARLINK-1792 can be tracked NOW for your location showing map with azimuth and elevation plus other details from your city location.

Track the satellite on the map from your city or location and see movement details for azimuth, elevation, latitude, longitude, range, height, and movement on the map or in text.







IsCatalogInMostPopularTable: catalog: 46693, numindb: 9
Update: records affected: 1



GetName: 46693 STARLINK-1792

Hit Count: updated at: Thu, 03 Dec 2020 07:23:38 GMT